Location: Madrid
(40.4000°N, 3.6830°W)
Time: 11:15:24
(UTC+02:00)

ISS - Pass Details

Date: 23 May 2020
Orbit: 417 x 419 km, 51.6° (Epoch: 31 May)

Event Time Altitude Azimuth Distance (km) Brightness Sun altitude
Rises 22:15:23 0° 285° (WNW) 2,361 1.6 -7.8°
Reaches altitude 10° 22:18:10 10° 310° (NW) 1,499 0.8 -8.3°
Maximum altitude 22:20:12 15° 347° (NNW) 1,233 -0.6 -8.6°
Drops below altitude 10° 22:22:14 10° 24° (NNE) 1,502 -0.8 -8.9°
Sets 22:25:02 0° 49° (NE) 2,369 -0.1 -9.3°
